Time,TemperatureF,DewpointF,PressureIn,WindDirection,WindDirectionDegrees,WindSpeedMPH,WindSpeedGustMPH,Humidity,HourlyPrecipIn,Conditions,Clouds,dailyrainin,SoftwareType,DateUTC
2013-01-11 00:03:00,45.0,34.0,30.43,ESE,121,0.0,1.0,66,0.00,,,0.00,,2013-01-11 05:03:00,
2013-01-11 00:13:00,45.0,34.0,30.43,ESE,121,0.0,1.0,66,0.00,,,0.00,,2013-01-11 05:13:00,
2013-01-11 00:22:00,45.0,34.0,30.42,ESE,121,0.0,1.0,65,0.00,,,0.00,,2013-01-11 05:22:00,
2013-01-11 00:33:00,46.0,35.0,30.42,ESE,121,1.0,1.0,65,0.00,,,0.00,,2013-01-11 05:33:00,
2013-01-11 00:43:00,46.0,35.0,30.42,ESE,121,1.0,1.0,65,0.00,,,0.00,,2013-01-11 05:43:00,
2013-01-11 00:53:00,45.0,34.0,30.42,SE,129,0.0,2.0,65,0.00,,,0.00,,2013-01-11 05:53:00,
2013-01-11 01:03:00,45.0,34.0,30.42,SE,129,0.0,2.0,65,0.00,,,0.00,,2013-01-11 06:03:00,
2013-01-11 01:12:00,45.0,34.0,30.42,SE,129,0.0,2.0,65,0.00,,,0.00,,2013-01-11 06:12:00,
2013-01-11 01:22:00,46.0,35.0,30.42,SE,129,0.0,2.0,65,0.00,,,0.00,,2013-01-11 06:22:00,
2013-01-11 01:32:00,46.0,34.0,30.41,SSE,155,4.0,6.0,62,0.00,,,0.00,,2013-01-11 06:32:00,
2013-01-11 01:42:00,46.0,34.0,30.41,SSE,155,4.0,6.0,62,0.00,,,0.00,,2013-01-11 06:42:00,
2013-01-11 01:52:00,47.0,34.0,30.41,SE,141,1.0,5.0,60,0.00,,,0.00,,2013-01-11 06:52:00,
2013-01-11 02:02:00,48.0,34.0,30.40,ESE,118,4.0,6.0,58,0.00,,,0.00,,2013-01-11 07:02:00,
2013-01-11 02:12:00,48.0,34.0,30.40,ESE,118,4.0,6.0,58,0.00,,,0.00,,2013-01-11 07:12:00,
2013-01-11 02:22:00,48.0,34.0,30.41,SE,132,3.0,8.0,58,0.00,,,0.00,,2013-01-11 07:22:00,
2013-01-11 02:32:00,48.0,34.0,30.41,SE,138,3.0,5.0,58,0.00,,,0.00,,2013-01-11 07:32:00,
2013-01-11 02:42:00,48.0,34.0,30.41,East,97,3.0,5.0,57,0.00,,,0.00,,2013-01-11 07:42:00,
2013-01-11 02:52:00,48.0,34.0,30.41,East,97,3.0,5.0,57,0.00,,,0.00,,2013-01-11 07:52:00,
2013-01-11 03:02:00,48.0,34.0,30.40,East,99,2.0,5.0,57,0.00,,,0.00,,2013-01-11 08:02:00,
2013-01-11 03:12:00,48.0,34.0,30.39,East,96,4.0,6.0,57,0.00,,,0.00,,2013-01-11 08:12:00,
2013-01-11 03:22:00,48.0,34.0,30.39,East,96,4.0,6.0,57,0.00,,,0.00,,2013-01-11 08:22:00,
2013-01-11 03:32:00,48.0,34.0,30.40,SE,134,2.0,7.0,57,0.00,,,0.00,,2013-01-11 08:32:00,
2013-01-11 03:42:00,48.0,34.0,30.40,SE,134,2.0,7.0,57,0.00,,,0.00,,2013-01-11 08:42:00,
2013-01-11 03:53:00,47.0,33.0,30.40,SE,132,3.0,5.0,58,0.00,,,0.00,,2013-01-11 08:53:00,
2013-01-11 04:02:00,47.0,33.0,30.40,ENE,70,2.0,6.0,59,0.00,,,0.00,,2013-01-11 09:02:00,
2013-01-11 04:12:00,47.0,33.0,30.40,ENE,70,2.0,6.0,59,0.00,,,0.00,,2013-01-11 09:12:00,
2013-01-11 04:23:00,47.0,34.0,30.40,East,89,3.0,7.0,60,0.00,,,0.00,,2013-01-11 09:23:00,
2013-01-11 04:32:00,47.0,34.0,30.39,ESE,105,4.0,6.0,61,0.00,,,0.00,,2013-01-11 09:32:00,
2013-01-11 04:42:00,47.0,34.0,30.39,ESE,105,4.0,6.0,61,0.00,,,0.00,,2013-01-11 09:42:00,
2013-01-11 04:52:00,47.0,34.0,30.38,ENE,66,3.0,7.0,61,0.00,,,0.00,,2013-01-11 09:52:00,
2013-01-11 05:02:00,47.0,34.0,30.36,East,84,3.0,7.0,61,0.00,,,0.00,,2013-01-11 10:02:00,
2013-01-11 05:12:00,47.0,34.0,30.36,East,84,3.0,7.0,61,0.00,,,0.00,,2013-01-11 10:12:00,
2013-01-11 05:22:00,46.0,34.0,30.36,SSE,163,2.0,6.0,62,0.00,,,0.00,,2013-01-11 10:22:00,
2013-01-11 05:32:00,46.0,34.0,30.37,East,88,4.0,7.0,62,0.00,,,0.00,,2013-01-11 10:32:00,
2013-01-11 05:42:00,46.0,34.0,30.37,East,88,4.0,7.0,62,0.00,,,0.00,,2013-01-11 10:42:00,
2013-01-11 05:53:00,46.0,34.0,30.38,SE,133,4.0,9.0,62,0.00,,,0.00,,2013-01-11 10:53:00,
2013-01-11 06:03:00,46.0,34.0,30.38,SSE,155,6.0,11.0,62,0.00,,,0.00,,2013-01-11 11:03:00,
2013-01-11 06:12:00,46.0,34.0,30.38,SSE,155,6.0,11.0,62,0.00,,,0.00,,2013-01-11 11:12:00,
2013-01-11 06:22:00,46.0,34.0,30.38,East,90,3.0,8.0,63,0.00,,,0.00,,2013-01-11 11:22:00,
2013-01-11 06:33:00,45.0,34.0,30.37,East,95,4.0,7.0,65,0.00,,,0.00,,2013-01-11 11:33:00,
2013-01-11 06:42:00,45.0,34.0,30.37,East,95,4.0,7.0,65,0.00,,,0.00,,2013-01-11 11:42:00,
2013-01-11 06:53:00,45.0,34.0,30.37,SE,144,2.0,7.0,66,0.00,,,0.00,,2013-01-11 11:53:00,
2013-01-11 07:03:00,45.0,35.0,30.38,SSE,149,5.0,8.0,69,0.00,,,0.00,,2013-01-11 12:03:00,
2013-01-11 07:12:00,45.0,35.0,30.38,SSE,149,5.0,8.0,69,0.00,,,0.00,,2013-01-11 12:12:00,
2013-01-11 07:22:00,44.0,36.0,30.38,SSE,147,2.0,5.0,73,0.00,,,0.00,,2013-01-11 12:22:00,
2013-01-11 07:33:00,43.0,35.0,30.40,SSE,153,5.0,7.0,74,0.01,,,0.01,,2013-01-11 12:33:00,
2013-01-11 07:43:00,43.0,35.0,30.40,SSE,153,5.0,7.0,74,0.01,,,0.01,,2013-01-11 12:43:00,
2013-01-11 07:53:00,42.0,36.0,30.39,SE,136,4.0,8.0,80,0.02,,,0.02,,2013-01-11 12:53:00,
2013-01-11 08:03:00,42.0,37.0,30.37,ESE,117,4.0,6.0,83,0.02,,,0.02,,2013-01-11 13:03:00,
2013-01-11 08:13:00,42.0,37.0,30.37,ESE,117,4.0,6.0,83,0.02,,,0.02,,2013-01-11 13:13:00,
2013-01-11 08:22:00,41.0,37.0,30.37,East,97,2.0,8.0,84,0.02,,,0.02,,2013-01-11 13:22:00,
2013-01-11 08:33:00,41.0,37.0,30.37,SSE,151,4.0,6.0,85,0.01,,,0.02,,2013-01-11 13:33:00,
2013-01-11 08:43:00,41.0,37.0,30.37,SSE,151,4.0,6.0,85,0.01,,,0.02,,2013-01-11 13:43:00,
2013-01-11 08:53:00,41.0,37.0,30.37,SSE,154,0.0,6.0,84,0.01,,,0.03,,2013-01-11 13:53:00,
2013-01-11 09:03:00,41.0,37.0,30.38,SSE,166,4.0,5.0,84,0.01,,,0.03,,2013-01-11 14:03:00,
2013-01-11 09:12:00,41.0,37.0,30.38,SSE,166,4.0,5.0,84,0.01,,,0.03,,2013-01-11 14:12:00,
2013-01-11 09:23:00,41.0,37.0,30.38,SSE,163,1.0,5.0,84,0.02,,,0.04,,2013-01-11 14:23:00,
2013-01-11 09:33:00,41.0,36.0,30.38,SSE,161,0.0,5.0,83,0.02,,,0.04,,2013-01-11 14:33:00,
2013-01-11 09:43:00,41.0,36.0,30.37,SE,130,2.0,6.0,83,0.01,,,0.04,,2013-01-11 14:43:00,
2013-01-11 09:53:00,41.0,36.0,30.37,SE,130,2.0,6.0,83,0.01,,,0.04,,2013-01-11 14:53:00,
2013-01-11 10:03:00,41.0,37.0,30.37,SE,130,0.0,4.0,84,0.01,,,0.04,,2013-01-11 15:03:00,
2013-01-11 10:13:00,41.0,37.0,30.36,South,172,1.0,5.0,84,0.00,,,0.04,,2013-01-11 15:13:00,
2013-01-11 10:23:00,41.0,37.0,30.36,South,172,1.0,5.0,84,0.00,,,0.04,,2013-01-11 15:23:00,
2013-01-11 10:33:00,41.0,37.0,30.35,SE,138,3.0,6.0,84,0.00,,,0.04,,2013-01-11 15:33:00,
2013-01-11 10:43:00,41.0,37.0,30.35,SE,138,3.0,6.0,84,0.00,,,0.04,,2013-01-11 15:43:00,
2013-01-11 10:53:00,41.0,36.0,30.34,SSE,154,3.0,7.0,83,0.00,,,0.04,,2013-01-11 15:53:00,
2013-01-11 11:03:00,42.0,38.0,30.33,SE,136,2.0,6.0,84,0.00,,,0.04,,2013-01-11 16:03:00,
2013-01-11 11:12:00,41.0,37.0,30.32,East,86,2.0,11.0,84,0.00,,,0.04,,2013-01-11 16:12:00,
2013-01-11 11:23:00,41.0,37.0,30.32,East,86,2.0,11.0,84,0.00,,,0.04,,2013-01-11 16:23:00,
2013-01-11 11:33:00,41.0,37.0,30.31,East,98,5.0,8.0,86,0.01,,,0.05,,2013-01-11 16:33:00,
2013-01-11 11:43:00,41.0,37.0,30.31,East,98,5.0,8.0,86,0.01,,,0.05,,2013-01-11 16:43:00,
2013-01-11 11:53:00,41.0,38.0,30.30,SE,138,4.0,8.0,88,0.01,,,0.05,,2013-01-11 16:53:00,
2013-01-11 12:03:00,41.0,38.0,30.29,SE,132,4.0,7.0,88,0.01,,,0.05,,2013-01-11 17:03:00,
2013-01-11 12:12:00,41.0,38.0,30.27,SE,128,3.0,6.0,89,0.01,,,0.05,,2013-01-11 17:12:00,
2013-01-11 12:22:00,41.0,38.0,30.27,SE,128,3.0,6.0,89,0.01,,,0.05,,2013-01-11 17:22:00,
2013-01-11 12:33:00,40.0,38.0,30.26,ESE,116,3.0,8.0,91,0.00,,,0.05,,2013-01-11 17:33:00,
2013-01-11 12:43:00,40.0,38.0,30.26,ESE,116,3.0,8.0,91,0.00,,,0.05,,2013-01-11 17:43:00,
2013-01-11 12:53:00,41.0,39.0,30.25,ESE,113,5.0,6.0,91,0.00,,,0.05,,2013-01-11 17:53:00,
2013-01-11 13:03:00,41.0,39.0,30.25,East,93,3.0,6.0,91,0.00,,,0.05,,2013-01-11 18:03:00,
2013-01-11 13:13:00,41.0,39.0,30.25,East,93,3.0,6.0,91,0.00,,,0.05,,2013-01-11 18:13:00,
2013-01-11 13:23:00,41.0,39.0,30.24,East,98,4.0,6.0,91,0.00,,,0.05,,2013-01-11 18:23:00,
2013-01-11 13:33:00,41.0,39.0,30.23,ESE,111,2.0,9.0,91,0.01,,,0.06,,2013-01-11 18:33:00,
2013-01-11 13:43:00,41.0,39.0,30.23,ESE,111,2.0,9.0,91,0.01,,,0.06,,2013-01-11 18:43:00,
2013-01-11 13:53:00,41.0,39.0,30.22,ESE,105,3.0,8.0,91,0.01,,,0.06,,2013-01-11 18:53:00,
2013-01-11 14:03:00,41.0,39.0,30.21,SE,139,2.0,6.0,91,0.01,,,0.06,,2013-01-11 19:03:00,
2013-01-11 14:12:00,41.0,39.0,30.21,SE,139,2.0,6.0,91,0.01,,,0.06,,2013-01-11 19:12:00,
2013-01-11 14:22:00,41.0,39.0,30.21,SE,126,3.0,7.0,91,0.01,,,0.06,,2013-01-11 19:22:00,
2013-01-11 14:33:00,41.0,39.0,30.21,SSE,147,4.0,7.0,91,0.00,,,0.06,,2013-01-11 19:33:00,
2013-01-11 14:43:00,41.0,39.0,30.21,SSE,147,4.0,7.0,91,0.00,,,0.06,,2013-01-11 19:43:00,
2013-01-11 14:54:00,41.0,40.0,30.19,ESE,111,3.0,7.0,97,0.00,,,0.06,,2013-01-11 19:54:00,
2013-01-11 15:03:00,41.0,39.0,30.19,East,101,4.0,6.0,92,0.00,,,0.06,,2013-01-11 20:03:00,
2013-01-11 15:12:00,41.0,39.0,30.19,East,101,4.0,6.0,92,0.00,,,0.06,,2013-01-11 20:12:00,
2013-01-11 15:22:00,41.0,39.0,30.19,SE,135,4.0,6.0,92,0.00,,,0.06,,2013-01-11 20:22:00,
2013-01-11 15:33:00,41.0,39.0,30.19,SE,136,2.0,6.0,91,0.00,,,0.06,,2013-01-11 20:33:00,
2013-01-11 15:43:00,41.0,39.0,30.19,SE,136,2.0,6.0,91,0.00,,,0.06,,2013-01-11 20:43:00,
2013-01-11 15:53:00,41.0,39.0,30.19,ESE,105,3.0,6.0,92,0.00,,,0.06,,2013-01-11 20:53:00,
2013-01-11 16:03:00,41.0,39.0,30.19,SE,137,2.0,6.0,92,0.00,,,0.06,,2013-01-11 21:03:00,
2013-01-11 16:12:00,41.0,39.0,30.19,SE,137,2.0,6.0,92,0.00,,,0.06,,2013-01-11 21:12:00,
2013-01-11 16:23:00,41.0,39.0,30.19,ENE,78,2.0,5.0,92,0.00,,,0.06,,2013-01-11 21:23:00,
2013-01-11 16:33:00,41.0,39.0,30.19,ESE,103,2.0,5.0,92,0.00,,,0.06,,2013-01-11 21:33:00,
2013-01-11 16:42:00,41.0,39.0,30.19,ESE,103,2.0,5.0,92,0.00,,,0.06,,2013-01-11 21:42:00,
2013-01-11 16:53:00,41.0,39.0,30.18,ESE,111,3.0,5.0,92,0.00,,,0.06,,2013-01-11 21:53:00,
2013-01-11 17:03:00,41.0,39.0,30.19,SSE,165,1.0,5.0,92,0.00,,,0.06,,2013-01-11 22:03:00,
2013-01-11 17:12:00,41.0,39.0,30.19,SSE,165,1.0,5.0,92,0.00,,,0.06,,2013-01-11 22:12:00,
2013-01-11 17:23:00,41.0,39.0,30.18,SSE,163,4.0,6.0,93,0.00,,,0.06,,2013-01-11 22:23:00,
2013-01-11 17:33:00,41.0,39.0,30.17,SE,136,3.0,6.0,93,0.00,,,0.06,,2013-01-11 22:33:00,
2013-01-11 17:42:00,41.0,39.0,30.17,SE,136,3.0,6.0,93,0.00,,,0.06,,2013-01-11 22:42:00,
2013-01-11 17:53:00,41.0,39.0,30.16,SE,130,5.0,7.0,93,0.00,,,0.06,,2013-01-11 22:53:00,
2013-01-11 18:02:00,41.0,39.0,30.17,ESE,116,1.0,5.0,93,0.00,,,0.06,,2013-01-11 23:02:00,
2013-01-11 18:13:00,41.0,39.0,30.17,ESE,116,1.0,5.0,93,0.00,,,0.06,,2013-01-11 23:13:00,
2013-01-11 18:23:00,41.0,39.0,30.17,East,92,4.0,5.0,94,0.00,,,0.06,,2013-01-11 23:23:00,
2013-01-11 18:32:00,41.0,39.0,30.17,East,91,3.0,5.0,93,0.00,,,0.06,,2013-01-11 23:32:00,
2013-01-11 18:43:00,41.0,39.0,30.17,East,91,3.0,5.0,93,0.00,,,0.06,,2013-01-11 23:43:00,
2013-01-11 18:53:00,41.0,39.0,30.17,ESE,120,1.0,5.0,94,0.00,,,0.06,,2013-01-11 23:53:00,
2013-01-11 19:02:00,41.0,39.0,30.17,SSE,150,3.0,5.0,94,0.00,,,0.06,,2013-01-12 00:02:00,
2013-01-11 19:12:00,41.0,39.0,30.16,SSE,150,2.0,5.0,94,0.00,,,0.06,,2013-01-12 00:12:00,
2013-01-11 19:23:00,41.0,39.0,30.16,SSE,150,2.0,5.0,94,0.00,,,0.06,,2013-01-12 00:23:00,
2013-01-11 19:33:00,41.0,40.0,30.17,SSE,150,1.0,2.0,95,0.00,,,0.06,,2013-01-12 00:33:00,
2013-01-11 19:43:00,41.0,40.0,30.17,SSE,150,1.0,2.0,95,0.00,,,0.06,,2013-01-12 00:43:00,
2013-01-11 19:53:00,42.0,41.0,30.17,NE,42,2.0,3.0,95,0.00,,,0.06,,2013-01-12 00:53:00,
2013-01-11 20:02:00,41.0,40.0,30.17,NNE,26,0.0,2.0,95,0.00,,,0.06,,2013-01-12 01:02:00,
2013-01-11 20:12:00,41.0,40.0,30.17,NNE,26,0.0,2.0,95,0.00,,,0.06,,2013-01-12 01:12:00,
2013-01-11 20:22:00,42.0,41.0,30.16,NNE,25,0.0,1.0,95,0.00,,,0.06,,2013-01-12 01:22:00,
2013-01-11 20:33:00,42.0,41.0,30.17,NNE,25,0.0,1.0,95,0.00,,,0.06,,2013-01-12 01:33:00,
2013-01-11 20:43:00,42.0,41.0,30.17,NNE,25,0.0,1.0,95,0.00,,,0.06,,2013-01-12 01:43:00,
2013-01-11 20:53:00,42.0,41.0,30.17,North,5,0.0,3.0,95,0.00,,,0.06,,2013-01-12 01:53:00,
2013-01-11 21:02:00,42.0,41.0,30.17,North,5,0.0,1.0,95,0.00,,,0.06,,2013-01-12 02:02:00,
2013-01-11 21:12:00,42.0,41.0,30.17,North,5,0.0,1.0,95,0.00,,,0.06,,2013-01-12 02:12:00,
2013-01-11 21:22:00,42.0,41.0,30.16,North,5,0.0,1.0,95,0.00,,,0.06,,2013-01-12 02:22:00,
2013-01-11 21:33:00,42.0,41.0,30.16,North,5,0.0,2.0,95,0.00,,,0.06,,2013-01-12 02:33:00,
2013-01-11 21:43:00,42.0,41.0,30.16,North,5,0.0,2.0,95,0.00,,,0.06,,2013-01-12 02:43:00,
2013-01-11 21:53:00,42.0,41.0,30.16,North,5,0.0,1.0,95,0.00,,,0.06,,2013-01-12 02:53:00,
2013-01-11 22:03:00,42.0,41.0,30.16,SE,127,3.0,4.0,95,0.00,,,0.06,,2013-01-12 03:03:00,
2013-01-11 22:12:00,42.0,41.0,30.16,SE,127,3.0,4.0,95,0.00,,,0.06,,2013-01-12 03:12:00,
2013-01-11 22:22:00,42.0,41.0,30.15,SE,128,1.0,4.0,95,0.00,,,0.06,,2013-01-12 03:22:00,
2013-01-11 22:33:00,42.0,41.0,30.15,SE,127,0.0,1.0,95,0.00,,,0.06,,2013-01-12 03:33:00,
2013-01-11 22:43:00,42.0,41.0,30.15,SE,127,0.0,1.0,95,0.00,,,0.06,,2013-01-12 03:43:00,
2013-01-11 22:53:00,42.0,41.0,30.16,SE,127,1.0,2.0,95,0.00,,,0.06,,2013-01-12 03:53:00,
2013-01-11 23:02:00,42.0,41.0,30.16,SE,127,1.0,2.0,95,0.00,,,0.06,,2013-01-12 04:02:00,
2013-01-11 23:12:00,42.0,41.0,30.16,SE,127,1.0,2.0,95,0.00,,,0.06,,2013-01-12 04:12:00,
2013-01-11 23:22:00,42.0,41.0,30.16,ESE,106,0.0,4.0,95,0.00,,,0.06,,2013-01-12 04:22:00,
2013-01-11 23:32:00,42.0,41.0,30.15,ESE,106,1.0,2.0,95,0.00,,,0.06,,2013-01-12 04:32:00,
2013-01-11 23:42:00,42.0,41.0,30.15,ESE,106,1.0,2.0,95,0.00,,,0.06,,2013-01-12 04:42:00,
2013-01-11 23:52:00,42.0,41.0,30.15,ESE,106,0.0,1.0,95,0.00,,,0.06,,2013-01-12 04:52:00,